Location: Trebic
(49.2170°N, 15.8830°E)
Time: 00:52:32
(UTC+02:00)

Transit 4A - Pass Details

Date: 27 August 2019
Orbit: 865 x 980 km, 66.8° (Epoch: 19 September)

Event Time Altitude Azimuth Distance (km) Brightness Sun altitude
Rises 22:31:08 0° 305° (NW) 3,677 12.3 -22.7°
Reaches altitude 10° 22:34:58 10° 327° (NNW) 2,715 11.4 -23.0°
Maximum altitude 22:38:38 16° 2° (N) 2,314 10.5 -23.4°
Drops below altitude 10° 22:42:15 10° 38° (NE) 2,677 10.5 -23.8°
Sets 22:45:59 0° 60° (ENE) 3,596 10.9 -24.1°
